Location: Colonial Hills
(40.5656°N, 77.6119°W)
Time: 15:19:16
(UTC+00:00)

X-37B - Pass Details

Date: 03 December 2020
Orbit: 384 x 390 km, 45.0° (Epoch: 02 January)

Event Time Altitude Azimuth Distance (km) Brightness Sun altitude
Rises 23:13:22 0° 283° (WNW) 2,263 5.6 -16.6°
Reaches altitude 10° 23:15:33 10° 293° (WNW) 1,410 4.2 -17.0°
Maximum altitude 23:18:29 34° 1° (N) 658 1.6 -17.5°
Enters shadow 23:18:39 34° 9° (N) 662 1.5 -17.6°
